Location: Dittelbrunn
(50.0738°N, 10.2196°E)
Time: 12:52:07
(UTC+00:00)

ATLAS 2AS CENTAUR R/B - Pass Details

Date: 18 September 2020
Orbit: 939 x 1273 km, 63.7° (Epoch: 19 October)

Event Time Altitude Azimuth Distance (km) Brightness Sun altitude
Exits shadow 22:59:05 15° 272° (W) 2,890 4.9 -38.4°
Maximum altitude 23:05:12 40° 335° (NNW) 1,780 4.1 -38.5°
Drops below altitude 10° 23:12:23 10° 43° (NE) 3,169 5.6 -38.5°
Sets 23:15:20 0° 51° (NE) 4,093 6.2 -38.5°
